Volver al catálogo

STARLINK-31171

ActivoComunicacionesVLEO
NORAD 58834·PAYLOAD·🇺🇸 United States

Lanzado Jan 24, 2024 desde Vandenberg Space Force Base

Loading…

Próximos Pases (próximas 24 horas)

TLE

ActualizadoSource: CelesTrak SupGP

Época: Sep 15, 2026, 02:08 UTC

1 58834C 24017J   26258.08937500  .00017437  00000+0  51535-3 0  2588
2 58834  53.1592  18.7556 0001262  88.7974 210.9834 15.34371674    10

Sigue STARLINK-31171 en tiempo real con AllMySat

Download on the App Store